Ozark, AL

12:25 PM CST on November 18, 2017 (GMT -0600)
Cairns Army Air Field

Weather History for KOZR - December, 2014

Change the Weather History Date:

Thursday, December 18, 2014

  Actual Average Record
Temperature  
Mean Temperature 50 °F -  
Max Temperature 63 °F 58 °F 78 °F (2006)
Min Temperature 38 °F 37 °F 21 °F (2000)
Degree Days  
Heating Degree Days 14    
Moisture  
Dew Point 36 °F    
Average Humidity 61    
Maximum Humidity 90    
Minimum Humidity 29    
Precipitation  
Precipitation 0.00 in - - ()
Sea Level Pressure  
Sea Level Pressure 30.17 in    
Wind  
Wind Speed 4 mph (NNW)    
Max Wind Speed 8 mph    
Max Gust Speed -    
Visibility 10 miles    
Events      
Averages and records for this station are not official NWS values.
T = Trace of Precipitation, MM = Missing Value Source: NWS Daily Summary

Daily Weather History Graph

Daily Weather History Graph

Search for Another Location

Airport or City:

Trip Planner

Search our weather history database for the weather conditions in past years. The results will help you decide how hot, cold, wet, or windy it might be!

Date:

Astronomy

Dec. 18, 2014 Rise Set
Actual Time 6:35 AM CST 4:43 PM CST
Civil Twilight 6:09 AM CST 5:09 PM CST
Nautical Twilight 5:38 AM CST 5:40 PM CST
Astronomical Twilight 5:09 AM CST 6:09 PM CST
Moon 2:59 AM CST 2:13 PM CST
Length of Visible Light 11h 00m
Length of Day
10h 07m
Waning Crescent, 13% of the Moon is Illuminated
Dec 18
Waning Crescent
Dec 21
New
Dec 28
First Quarter
Jan 4
Full
Jan 13
Last Quarter

Hourly Weather History & Observations

Time (CST) Temp. Windchill Dew Point Humidity Pressure Visibility Wind Dir Wind Speed Gust Speed Precip Events Conditions
12:58 AM 42.8 °F 40.1 °F 38.3 °F 84% 30.17 in 10.0 mi NNW 4.6 mph - N/A   Scattered Clouds
1:58 AM 42.8 °F 41.1 °F 38.1 °F 84% 30.18 in 10.0 mi North 3.5 mph - N/A   Overcast
2:58 AM 42.1 °F - 37.6 °F 84% 30.17 in 9.0 mi Variable 1.2 mph - N/A   Mostly Cloudy
3:58 AM 40.1 °F - 37.2 °F 89% 30.17 in 9.0 mi WNW 2.3 mph - N/A   Mostly Cloudy
4:58 AM 40.1 °F 36.1 °F 37.4 °F 90% 30.18 in 9.0 mi NW 5.8 mph - N/A   Clear
5:58 AM 40.1 °F 34.7 °F 37.2 °F 89% 30.20 in 10.0 mi NNW 8.1 mph - N/A   Clear
6:58 AM 38.8 °F - 36.0 °F 89% 30.20 in 7.0 mi ENE 2.3 mph - N/A   Clear
7:58 AM 42.6 °F 39.0 °F 37.8 °F 83% 30.21 in 10.0 mi North 5.8 mph - N/A   Clear
8:58 AM 47.3 °F - 38.1 °F 70% 30.23 in 10.0 mi NNW 3.5 mph - N/A   Clear
9:58 AM 51.3 °F - 37.9 °F 60% 30.23 in 10.0 mi NNW 3.5 mph - N/A   Clear
10:58 AM 56.1 °F - 35.8 °F 46% 30.20 in 10.0 mi ENE 2.3 mph - N/A   Clear
11:58 AM 60.4 °F - 33.4 °F 36% 30.16 in 10.0 mi Variable 2.3 mph - N/A   Clear
12:58 PM 62.6 °F - 31.8 °F 32% 30.14 in 10.0 mi Calm Calm - N/A   Clear
1:58 PM 62.8 °F - 30.4 °F 30% 30.12 in 10.0 mi SW 2.3 mph - N/A   Mostly Cloudy
2:58 PM 63.3 °F - 30.6 °F 29% 30.10 in 10.0 mi SE 3.5 mph - N/A   Mostly Cloudy
3:58 PM 62.8 °F - 33.4 °F 33% 30.12 in 10.0 mi WNW 2.3 mph - N/A   Scattered Clouds
4:58 PM 58.5 °F - 37.9 °F 46% 30.14 in 10.0 mi WSW 3.5 mph - N/A   Scattered Clouds
5:58 PM 54.3 °F - 39.2 °F 57% 30.13 in 10.0 mi WNW 2.3 mph - N/A   Scattered Clouds
6:58 PM 54.5 °F - 37.8 °F 53% 30.15 in 10.0 mi NW 4.6 mph - N/A   Overcast
7:58 PM 52.9 °F - 37.9 °F 57% 30.17 in 10.0 mi NW 4.6 mph - N/A   Clear
8:58 PM 53.4 °F - 36.5 °F 53% 30.16 in 10.0 mi NNW 3.5 mph - N/A   Overcast
9:58 PM 52.9 °F - 37.0 °F 55% 30.15 in 10.0 mi NNW 4.6 mph - N/A   Scattered Clouds
10:58 PM 49.6 °F - 37.6 °F 63% 30.17 in 10.0 mi NW 4.6 mph - N/A   Mostly Cloudy
11:58 PM 52.2 °F - 34.5 °F 51% 30.16 in 10.0 mi NNW 8.1 mph - N/A   Overcast